Regional Weather Roundup
Issued by NWS

Home | Current Version | Previous Version | Text Only | Print | Product List | Glossary On
Versions: 1 2 3 4 5 6 7 8 9 10 11 12 13 14 15 16 17 18 19 20 21 22 23 24 25 26 27 28 29 30 31 32 33 34 35 36 37 38 39 40 41 42 43 44 45 46 47 48 49 50
000
ASCA42 TJSJ 040110
RWRPR
PUERTO RICO/U.S. VIRGIN ISLANDS HOURLY WEATHER ROUNDUP
NATIONAL WEATHER SERVICE SAN JUAN PR
900 PM AST FRI JUL 03 2015

PRZ001-004-040200-
PUERTO RICO

CITY           SKY/WX    TMP DP  RH WIND       PRES   REMARKS
SAN JUAN LMM   PTCLDY    82  73  74 E18G26    30.07R
AGUADILLA      PTCLDY    81  73  78 E20G30    30.07R
CEIBA          CLOUDY    82  75  78 NE12      30.09R
$$

PRZ006-007-040200-
U.S. VIRGIN ISLANDS

CITY           SKY/WX    TMP DP  RH WIND       PRES   REMARKS
CHARLOTTE AMA  CLOUDY    82  72  69 E15       30.07R
CHRISTIANSTED  PTCLDY    82  72  69 E17G24    30.06R
$$

HOURLY WEATHER ROUNDUP FOR THE NEWS MEDIA

CITY           SKY/WX    TMP DP  RH WIND       PRES   REMARKS
ORLANDO        CLOUDY    78  67  68 SW9       30.11R
NEW YORK       CLOUDY    72  63  73 SE7       29.97F
NEWARK         CLOUDY    75  61  61 S9        29.95S
CHICAGO        MOCLDY    70  49  47 E7        29.91S
HARTFORD       MOCLDY    67  57  70 S6        29.98S
BOSTON         MOCLDY    68  56  65 SE6       29.96S
DALLAS         MOCLDY    89  67  47 S9        29.89F HX  92
PHILADELPHIA   CLOUDY    76  62  62 S7        29.96R
LOS ANGELES    PTSUNNY   67  61  81 W15       29.86F
WASHINGTON DC  CLOUDY    71  65  81 SE5       29.93S


USA.gov is the U.S. government's official web portal to all federal, state and local government web resources and services.